• In Belarus
  • List of Countries
  • For 7 days
  • Water Temperature
  • Satellite Maps
  • Weather Map
  • Weather Widgets
  • user-avatar
    Login

    Hourly Weather Sidi Bu-l-Abbas

    Today, 12 December, Tuesday

    Time Temperature Precipitation Wind Pressure Humidity
    00:00 +10°C° 0 mm 3 mps 714 mmHg 74%
    01:00 +10°C° 0.1 mm 3 mps 714 mmHg 71%
    02:00 +10°C° 0.1 mm 3 mps 714 mmHg 69%
    03:00 +10°C° 0.1 mm 3 mps 714 mmHg 67%
    04:00 +10°C° 0.1 mm 3 mps 715 mmHg 66%
    05:00 +10°C° 0.1 mm 2 mps 715 mmHg 65%
    06:00 +10°C° 0 mm 3 mps 716 mmHg 65%
    07:00 +10°C° 0.1 mm 3 mps 716 mmHg 65%
    08:00 +10°C° 0.1 mm 3 mps 717 mmHg 64%
    09:00 +11°C° 0.1 mm 4 mps 717 mmHg 64%
    10:00 +11°C° 0.1 mm 4 mps 718 mmHg 62%
    11:00 +11°C° 0.1 mm 4 mps 718 mmHg 61%
    12:00 +12°C° 0.1 mm 5 mps 719 mmHg 59%
    13:00 +12°C° 0 mm 5 mps 719 mmHg 59%
    14:00 +12°C° 0 mm 5 mps 719 mmHg 59%
    15:00 +12°C° 0 mm 5 mps 719 mmHg 59%
    16:00 +11°C° 0 mm 4 mps 720 mmHg 64%
    17:00 +10°C° 0 mm 4 mps 720 mmHg 69%
    18:00 +10°C° 0 mm 3 mps 721 mmHg 74%
    19:00 +9°C° 0.1 mm 2 mps 722 mmHg 76%
    20:00 +9°C° 0.1 mm 2 mps 722 mmHg 79%
    21:00 +9°C° 0.1 mm 1 mps 723 mmHg 82%
    22:00 +9°C° 0 mm 1 mps 723 mmHg 82%
    23:00 +9°C° 0 mm 1 mps 724 mmHg 82%

    Tomorrow, 13 December, Wednesday

    Time Temperature Precipitation Wind Pressure Humidity
    00:00 +9°C° 0 mm 1 mps 724 mmHg 82%
    01:00 +8°C° 0 mm 1 mps 725 mmHg 82%
    02:00 +8°C° 0 mm 1 mps 725 mmHg 83%
    03:00 +8°C° 0 mm 1 mps 725 mmHg 83%
    04:00 +8°C° 0 mm 1 mps 725 mmHg 84%
    05:00 +7°C° 0 mm 1 mps 725 mmHg 86%
    06:00 +7°C° 0 mm 1 mps 726 mmHg 87%
    07:00 +8°C° 0 mm 1 mps 726 mmHg 81%
    08:00 +9°C° 0 mm 1 mps 727 mmHg 74%
    09:00 +10°C° 0 mm 1 mps 727 mmHg 68%
    10:00 +11°C° 0 mm 1 mps 728 mmHg 62%
    11:00 +12°C° 0 mm 1 mps 728 mmHg 56%
    12:00 +13°C° 0 mm 1 mps 728 mmHg 49%
    13:00 +13°C° 0 mm 1 mps 727 mmHg 48%
    14:00 +14°C° 0 mm 1 mps 727 mmHg 46%
    15:00 +14°C° 0 mm 2 mps 727 mmHg 44%
    16:00 +13°C° 0 mm 2 mps 727 mmHg 49%
    17:00 +12°C° 0 mm 1 mps 727 mmHg 53%
    18:00 +11°C° 0 mm 1 mps 727 mmHg 58%
    19:00 +11°C° 0 mm 1 mps 727 mmHg 60%
    20:00 +10°C° 0 mm 1 mps 727 mmHg 62%
    21:00 +10°C° 0 mm 1 mps 727 mmHg 64%
    22:00 +10°C° 0 mm 1 mps 727 mmHg 64%
    23:00 +9°C° 0 mm 1 mps 727 mmHg 64%

    Day after tomorrow, 14 December, Thursday

    Time Temperature Precipitation Wind Pressure Humidity
    00:00 +9°C° 0 mm 1 mps 727 mmHg 64%
    01:00 +9°C° 0 mm 1 mps 727 mmHg 64%
    02:00 +9°C° 0 mm 1 mps 727 mmHg 65%
    03:00 +9°C° 0 mm 1 mps 726 mmHg 65%
    04:00 +9°C° 0 mm 1 mps 726 mmHg 66%
    05:00 +9°C° 0 mm 1 mps 726 mmHg 67%
    06:00 +9°C° 0 mm 1 mps 725 mmHg 68%
    07:00 +10°C° 0 mm 1 mps 726 mmHg 63%
    08:00 +12°C° 0 mm 2 mps 726 mmHg 57%
    09:00 +13°C° 0 mm 2 mps 727 mmHg 51%
    10:00 +15°C° 0 mm 2 mps 726 mmHg 45%
    11:00 +16°C° 0 mm 3 mps 726 mmHg 40%
    12:00 +18°C° 0 mm 3 mps 725 mmHg 35%
    13:00 +18°C° 0 mm 3 mps 725 mmHg 35%
    14:00 +18°C° 0 mm 3 mps 724 mmHg 35%
    15:00 +19°C° 0 mm 3 mps 723 mmHg 35%
    16:00 +17°C° 0 mm 2 mps 723 mmHg 42%
    17:00 +15°C° 0 mm 2 mps 723 mmHg 50%
    18:00 +13°C° 0 mm 1 mps 723 mmHg 57%
    19:00 +12°C° 0 mm 1 mps 723 mmHg 57%
    20:00 +12°C° 0 mm 1 mps 723 mmHg 58%
    21:00 +12°C° 0 mm 1 mps 722 mmHg 58%
    22:00 +12°C° 0 mm 2 mps 722 mmHg 56%
    23:00 +12°C° 0 mm 2 mps 722 mmHg 54%

    15 December, Friday

    Time Temperature Precipitation Wind Pressure Humidity
    00:00 +12°C° 0 mm 2 mps 722 mmHg 52%
    01:00 +10°C° 0 mm 2 mps 721 mmHg 52%
    02:00 +10°C° 0 mm 2 mps 721 mmHg 51%
    03:00 +10°C° 0 mm 2 mps 720 mmHg 50%
    04:00 +10°C° 0 mm 2 mps 720 mmHg 50%
    05:00 +9°C° 0 mm 2 mps 720 mmHg 50%
    06:00 +9°C° 0 mm 2 mps 719 mmHg 49%
    07:00 +12°C° 0 mm 2 mps 720 mmHg 47%
    08:00 +13°C° 0 mm 2 mps 720 mmHg 45%
    09:00 +14°C° 0 mm 2 mps 720 mmHg 43%
    10:00 +14°C° 0 mm 3 mps 720 mmHg 40%
    11:00 +17°C° 0 mm 3 mps 720 mmHg 37%
    12:00 +18°C° 0 mm 4 mps 719 mmHg 34%
    13:00 +17°C° 0 mm 4 mps 719 mmHg 38%
    14:00 +16°C° 0 mm 5 mps 718 mmHg 42%
    15:00 +16°C° 0 mm 6 mps 717 mmHg 46%
    16:00 +15°C° 0 mm 6 mps 717 mmHg 55%
    17:00 +13°C° 0 mm 5 mps 717 mmHg 64%
    18:00 +12°C° 0 mm 5 mps 717 mmHg 73%
    19:00 +12°C° 0.2 mm 5 mps 718 mmHg 76%
    20:00 +12°C° 0.2 mm 5 mps 718 mmHg 80%
    21:00 +13°C° 0.2 mm 5 mps 719 mmHg 84%
    22:00 +12°C° 0.6 mm 5 mps 718 mmHg 86%
    23:00 +12°C° 0.6 mm 5 mps 718 mmHg 87%

    16 December, Saturday

    Time Temperature Precipitation Wind Pressure Humidity
    00:00 +12°C° 0.6 mm 5 mps 718 mmHg 88%
    01:00 +12°C° 0.3 mm 5 mps 718 mmHg 88%
    02:00 +12°C° 0.3 mm 4 mps 718 mmHg 87%
    03:00 +12°C° 0.3 mm 3 mps 718 mmHg 87%
    04:00 +12°C° 0.1 mm 3 mps 718 mmHg 87%
    05:00 +12°C° 0.1 mm 3 mps 719 mmHg 86%
    06:00 +12°C° 0.1 mm 2 mps 719 mmHg 86%
    07:00 +13°C° 0.1 mm 2 mps 720 mmHg 84%
    08:00 +13°C° 0.1 mm 2 mps 720 mmHg 81%
    09:00 +13°C° 0.1 mm 2 mps 721 mmHg 79%
    10:00 +14°C° 0.1 mm 2 mps 721 mmHg 74%
    11:00 +15°C° 0.1 mm 2 mps 721 mmHg 70%
    12:00 +15°C° 0.1 mm 2 mps 721 mmHg 65%
    13:00 +15°C° 0 mm 2 mps 721 mmHg 63%
    14:00 +15°C° 0 mm 2 mps 720 mmHg 62%
    15:00 +16°C° 0 mm 2 mps 720 mmHg 60%
    16:00 +15°C° 0 mm 2 mps 720 mmHg 63%
    17:00 +14°C° 0 mm 2 mps 720 mmHg 67%
    18:00 +14°C° 0 mm 2 mps 720 mmHg 70%
    19:00 +13°C° 0.9 mm 2 mps 720 mmHg 73%
    20:00 +13°C° 0.9 mm 2 mps 720 mmHg 76%
    21:00 +12°C° 0.9 mm 2 mps 720 mmHg 78%
    22:00 +12°C° 1 mm 2 mps 720 mmHg 81%
    23:00 +11°C° 1 mm 3 mps 720 mmHg 83%

    17 December, Sunday

    Time Temperature Precipitation Wind Pressure Humidity
    00:00 +10°C° 1 mm 3 mps 720 mmHg 85%
    01:00 +10°C° 1.8 mm 3 mps 720 mmHg 87%
    02:00 +9°C° 1.8 mm 3 mps 720 mmHg 88%
    03:00 +9°C° 1.8 mm 2 mps 720 mmHg 89%
    04:00 +9°C° 0.4 mm 2 mps 720 mmHg 88%
    05:00 +9°C° 0.4 mm 2 mps 721 mmHg 87%
    06:00 +10°C° 0.4 mm 1 mps 721 mmHg 86%
    07:00 +10°C° 0 mm 1 mps 722 mmHg 81%
    08:00 +10°C° 0 mm 1 mps 723 mmHg 77%
    09:00 +10°C° 0 mm 1 mps 724 mmHg 73%
    10:00 +11°C° 0 mm 1 mps 724 mmHg 67%
    11:00 +12°C° 0 mm 2 mps 724 mmHg 61%
    12:00 +11°C° 0 mm 3 mps 724 mmHg 56%
    13:00 +11°C° 0 mm 3 mps 724 mmHg 55%
    14:00 +11°C° 0 mm 4 mps 724 mmHg 55%
    15:00 +12°C° 0 mm 4 mps 724 mmHg 54%
    16:00 +11°C° 0 mm 4 mps 724 mmHg 60%
    17:00 +10°C° 0 mm 3 mps 725 mmHg 66%
    18:00 +9°C° 0 mm 2 mps 725 mmHg 72%
    19:00 +9°C° 0 mm 2 mps 726 mmHg 76%
    20:00 +9°C° 0 mm 1 mps 726 mmHg 79%
    21:00 +9°C° 0 mm 1 mps 727 mmHg 83%
    22:00 +8°C° 0 mm 1 mps 727 mmHg 84%
    23:00 +8°C° 0 mm 1 mps 727 mmHg 85%
    Show more